Terminal Aerodrome Forecast
Issued by NWS Boston, MA

Home | Current Version | Previous Version | Text Only | Print | Product List | Glossary On
Versions: 1 2 3 4 5 6 7 8 9 10 11 12 13 14 15 16 17 18
000
FTUS41 KBOX 040202 AAA
TAFORH
TAF AMD
KORH 040202Z 0402/0424 11005KT P6SM VCSH OVC010
     FM040900 01004KT P6SM OVC020
     FM041400 06006KT P6SM VCSH OVC030
     FM042200 07007KT P6SM -RA OVC020=

USA.gov is the U.S. government's official web portal to all federal, state and local government web resources and services.